Other Surface Observations
Issued by NWS

Current Version | Previous Version | Text Only | Print | Product List | Glossary On
Versions: 1 2 3 4 5 6 7 8 9 10 11 12 13 14 15 16 17 18 19 20 21 22 23 24 25 26 27 28 29 30 31 32 33 34 35 36 37 38 39 40 41 42 43 44 45 46 47 48 49 50
000
SXUS52 KTAE 091516
OSOTAE
OSOTAE
North Florida/South Alabama/Southwest Georgia Weather Roundup
National Weather Service Tallahassee Florida
1100 AM EDT SUN AUG 09 2020

Note: "fair" indicates few or no clouds below 12,000 feet with no
significant weather and/or obstructions to visibility.

!FLZ017-115-028-034-025-091600
...North Florida...

CITY           SKY/WX    TMP DP  RH WIND       PRES   REMARKS
TALL INTL ARPT MOSUNNY   87  77  72 VRB3      30.17F HX  99
FSU LOVE BLDG    N/A    N/A N/A N/A MISG        N/A
APALACHICOLA   MOSUNNY   87  77  72 S9        30.17S HX  99
PERRY          NOT AVBL
CROSS CITY     PTSUNNY   87  76  71 CALM      30.18S HX  97
JACKSONVILLE   PTSUNNY   88  74  63 NW5       30.16S HX  96
$$

!FLZ112-006-005-002-011-091600
...Florida Panhandle...

CITY           SKY/WX    TMP DP  RH WIND       PRES   REMARKS
MARIANNA       MOSUNNY   87  75  67 N5        30.17S HX  96
BONIFAY        NOT AVBL
PANAMA CITY NW PTSUNNY   89  79  72 CALM      30.16S HX 104
TYNDALL AFB    MOSUNNY   86  76  71 SE6       30.16  HX  96
TYND DRONE APT FAIR      84  72  65 SE9       30.17S
DE FUNIAK SPR  FAIR      85  73  66 CALM      30.19R HX  92
EGLIN AFB      PTSUNNY   87  75  68 CALM      30.16S HX  96
DESTIN         PTSUNNY   86  75  69 CALM      30.16  HX  95
HURLBURT       MOSUNNY   88  75  66 NW3       30.15  HX  97
CRESTVIEW      MOSUNNY   88  73  61 CALM      30.18S HX  95
PENSACOLA      PTSUNNY   88  77  69 VRB5      30.16S HX 100
$$

!ALZ063-066-091600
...South Alabama...

CITY           SKY/WX    TMP DP  RH WIND       PRES   REMARKS
DOTHAN         SUNNY     88  75  65 NW5       30.21R HX  97
OZARK CAIRNS   MOSUNNY   88  73  62 CALM      30.17  HX  96
FT RUCKER HELI MOSUNNY   88  73  59 NW3       30.17S HX  95
RUCKER HELI 3  FAIR      88  72  60 NW7       30.17R HX  94
RUCKER HELI 2  FAIR      87  73  64 CALM      30.16S HX  94
FLORALA APT    NOT AVBL
ANDALUSIA      SUNNY     90  73  57 W3        30.17S HX  98
TROY           SUNNY     88  73  61 CALM      30.18S HX  95
EUFALA         NOT AVBL
MOBILE         MOSUNNY   85  76  74 W8        30.17S HX  94
$$

!GAZ120>161-091600
...Southwest and South Central Georgia...

CITY           SKY/WX    TMP DP  RH WIND       PRES   REMARKS
THOMASVILLE    FAIR      86  73  66 CALM      30.19S HX  93
BAINBRIDGE     SUNNY     87  74  64 W6        30.18S HX  95
MOODY AFB      SUNNY     86  76  71 CALM      30.18  HX  96
VALDOSTA       MOSUNNY   88  74  63 VRB3      30.18S HX  96
MOULTRIE       SUNNY     86  73  66 CALM      30.19S HX  93
BLAKELY        SUNNY     86  70  58 W5        30.18S HX  90
ALBANY         SUNNY     90  72  55 W6        30.19R HX  97
TIFTON         FAIR      87  73  64 CALM      30.18  HX  94
FITZGERALD     FAIR      86  75  69 NW3       30.20S HX  96
CORDELE        FAIR      87  72  62 NW3       30.19S HX  93
AMERICUS       FAIR      88  73  62 NW5       30.20S HX  96
HOMERVILLE     FAIR     N/A N/A N/A CALM      30.18S
$$

!GMZ750-755-770-775-091600
...Coastal and Buoy Obs...

STATION/POSITION TIME  TEMP    WIND        PRES    VSBY  WAVE
                       AIR SEA DIR/SP/G                  HT/PER
                 (UTC) (F)     (DEG/KT/KT) (MB)    (MI)  (FT/S)
KEATON BEACH     1500   85     340/  2/  4 1022.4R
CEDAR KEY        1500   88     340/  5/  6 1022.0S
C TOWER          1500   85      CALM  /  1 1022.3R
APALACHICOLA BUO 1500          350/  6/  6 1022.6
PANAMA CITY BUOY 1500      86  290/  4/  4 1021.9
MOBILE BUOY      1500   85     260/  4/  4 1021.9
ORANGE BCH AL BU 1500   86 87   CALM  /  2 1021.5
$$



USA.gov is the U.S. government's official web portal to all federal, state and local government web resources and services.